Regional Weather Roundup
Issued by NWS

Home | Current Version | Previous Version | Text Only | Print | Product List | Glossary Off
Versions: 1 2 3 4 5 6 7 8 9 10 11 12 13 14 15 16 17 18 19 20 21 22 23 24 25 26 27 28 29 30 31 32 33 34 35 36 37 38 39 40 41 42 43 44 45 46 47 48 49 50

000
ASUS45 KBOU 191407
RWRCO

WEATHER ROUNDUP FOR COLORADO
NATIONAL WEATHER SERVICE DENVER/BOULDER CO
800 AM MDT SUN APR 19 2015

NOTE: "FAIR" INDICATES FEW OR NO CLOUDS BELOW 12000 FEET WITH NO
SIGNIFICANT WEATHER AND/OR OBSTRUCTIONS TO VISIBILITY.

COZ001>005-013-030-031-191500-
...NORTHWEST COLORADO...

CITY           SKY/WX    TMP DP  RH WIND       PRES   REMARKS
CRAIG          CLOUDY    34  32  92 SW5       30.18R WCI  30
HAYDEN         CLOUDY    34  30  86 CALM      30.16S
MEEKER         CLOUDY    35  33  92 SE3       30.17R
MOUNT WERNER   NOT AVBL
STEAMBOAT SPGS CLOUDY    32  31  99 CALM      30.16R
WALDEN         CLOUDY    28  23  80 NW8       30.16S WCI  20
$$

COZ006>008-011-191500-
...WEST CENTRAL VALLEYS...

CITY           SKY/WX    TMP DP  RH WIND       PRES   REMARKS
GRAND JUNCTION PTSUNNY   37  36  96 S5        30.15R
MONTROSE       CLOUDY    37  36  96 S5        30.20R
EAGLE          CLOUDY    36  36 100 CALM      30.17S FOG
RIFLE          FOG       33  32  96 NW3       30.17S VSB<1/4
DELTA          CLOUDY    37  37  99 CALM      30.20R VSB 1/4
NUCLA          MOSUNNY   36  32  87 SE3       30.20R
$$

COZ017>023-064>068-191500-
...SOUTHWEST COLORADO...

CITY           SKY/WX    TMP DP  RH WIND       PRES   REMARKS
DURANGO        SUNNY     33  23  66 N3        30.09R
CORTEZ         SUNNY     40  33  76 NE3       30.12R
PAGOSA SPRINGS SUNNY     36  22  58 CALM      30.11R
TELLURIDE      CLOUDY    30  26  84 CALM      30.19R
WOLF CREEK PAS SUNNY     23  12  63 NE20      30.18R WCI   8
$$

COZ009-010-012-014-032>034-037-058>063-191500-
...CENTRAL COLORADO...

CITY           SKY/WX    TMP DP  RH WIND       PRES   REMARKS
ASPEN          CLOUDY    32  30  92 CALM      30.15R
BUENA VISTA    CLOUDY    23  16  74 CALM      30.14R
COPPER MTN     CLOUDY    23  18  80 W12       30.15R WCI  12
BERTHOUD PASS  CLOUDY    14   7  73 NW15      30.14R WCI  -1
COTTONWOOD PAS MOSUNNY   32  18  55 NW5       30.14R WCI  27
GUNNISON       MOSUNNY   27  21  80 E3        30.20R
KREMMLING      CLOUDY    34  23  64 N6        30.16S WCI  29
LEADVILLE      CLOUDY    25  20  81 NW3       30.12R
MONARCH PASS   CLOUDY    18  14  86 MISG      30.25R
SALIDA         MOSUNNY   29  23  78 N3        30.22R
SUNLIGHT       CLOUDY   N/A N/A N/A CALM      30.22R
WILKERSON PASS FOG       21  19  93 W5        30.15R VSB 1/2 WCI  15
$$

COZ069>075-191500-
...SAN LUIS VALLEY/SANGRE DE CRISTO MOUNTAINS...

CITY           SKY/WX    TMP DP  RH WIND       PRES   REMARKS
ALAMOSA        SUNNY     32  25  75 SW3       30.11R
LA VETA PASS   SNOW      25  23  93 NE8       30.14R VSB<1/4 WCI  16
SAGUACHE       MOSUNNY   36  27  69 N10       30.13R
$$

COZ035-036-038>040-191500-
...NORTHERN COLORADO FRONT RANGE...

CITY           SKY/WX    TMP DP  RH WIND       PRES   REMARKS
DENVER INTL AP CLOUDY    36  27  69 N23G32    30.13S
DMNS CITY PARK   N/A     37  26  64 NE9       30.17R
AURORA         PTSUNNY   35  28  75 N16G22    30.16R WCI  25
FRONT RANGE AP PTSUNNY   37  28  70 N17G23    30.14S
ERIE MUNI ARPT CLOUDY    38  28  67 N9        30.15S
BOULDER MUN AP CLOUDY    37  30  75 CALM      30.15R
CENTENNIAL     PTSUNNY   34  26  72 N15       30.15R WCI  24
BROOMFIELD     CLOUDY    36  28  75 N13       30.16R
FORT COLLINS   PTSUNNY   39  25  56 N25       30.15S
LONGMONT       CLOUDY    42  30  63 N5        30.17R
$$

COZ041-046-047-076>085-087-088-191500-
...PIKES PEAK/PALMER DIVIDE AND SOUTHERN FOOTHILLS...

CITY           SKY/WX    TMP DP  RH WIND       PRES   REMARKS
COLO. SPRINGS  FLURRIES  36  27  69 N18G30    30.14R
A. F. ACADEMY  FLURRIES  32  27  80 N17G24    30.13R WCI  21
ELLICOTT       PTSUNNY  N/A N/A N/A N25G35    30.10R
FALCON         CLOUDY    32  26  80 N20G30    30.13R WCI  20
FORT CARSON    CLOUDY    38  28  65 N24G32    30.13R
LIMON          CLOUDY    36  31  82 N28G39    30.08R
MONUMENT HILL  CLOUDY    30  27  86 N21G28    30.12R WCI  17
TRINIDAD       CLOUDY    39  33  79 N20G29    30.12R
$$

COZ042>045-048>051-090-091-191500-
...NORTHEAST COLORADO...

CITY           SKY/WX    TMP DP  RH WIND       PRES   REMARKS
GREELEY ARPT   PTSUNNY   39  25  56 N18G24    30.15F
AKRON          PTSUNNY   39  32  76 N25G35    30.09R
BURLINGTON     LGT RAIN  41  34  76 N28G43    30.01R
WRAY           CLOUDY    42  35  75 NW21G28   30.04R
STERLING       PTSUNNY   41  32  70 N24G30    30.09R
HOLYOKE        CLOUDY    43  36  75 NW24G32   30.04R
FORT MORGAN    PTSUNNY   39  28  65 NW15G24   30.14R
$$

COZ086-089-092>099-191500-
...SOUTHEAST COLORADO...

CITY           SKY/WX    TMP DP  RH WIND       PRES   REMARKS
PUEBLO         CLOUDY    43  31  62 N18G26    30.11R
LA JUNTA       CLOUDY    43  36  76 N22       30.09R
LAMAR          LGT RAIN  42  38  85 N25G37    30.02R
SPRINGFIELD      N/A     40  37  89 N32G45    29.97R
$$


USA.gov is the U.S. government's official web portal to all federal, state and local government web resources and services.